Orlando, FL

8:51 PM EDT on October 19, 2017 (GMT -0400)
Executive

Weather History for KORL - June, 2014

Change the Weather History Date:

Monday, June 23, 2014

  Actual Average Record
Temperature  
Mean Temperature 84 °F -  
Max Temperature 93 °F 88 °F 98 °F (1998)
Min Temperature 75 °F 71 °F 71 °F (2001)
Cooling Degree Days 19    
Growing Degree Days 34 (Base 50)    
Moisture  
Dew Point 72 °F    
Average Humidity 75    
Maximum Humidity 91    
Minimum Humidity 47    
Precipitation  
Precipitation 0.00 in - - ()
Sea Level Pressure  
Sea Level Pressure 30.03 in    
Wind  
Wind Speed 6 mph (SSW)    
Max Wind Speed 12 mph    
Max Gust Speed 20 mph    
Visibility 10 miles    
Events Thunderstorm    
Averages and records for this station are not official NWS values.
T = Trace of Precipitation, MM = Missing Value Source: NWS Daily Summary

Daily Weather History Graph

Daily Weather History Graph

Search for Another Location

Airport or City:

Trip Planner

Search our weather history database for the weather conditions in past years. The results will help you decide how hot, cold, wet, or windy it might be!

Date:

Astronomy

Jun. 23, 2014 Rise Set
Actual Time 6:28 AM EDT 8:26 PM EDT
Civil Twilight 6:01 AM EDT 8:53 PM EDT
Nautical Twilight 5:29 AM EDT 9:25 PM EDT
Astronomical Twilight 4:54 AM EDT 10:00 PM EDT
Moon 3:40 AM EDT (6/23) 5:16 PM EDT (6/23)
Length of Visible Light 14h 51m
Length of Day
13h 57m
Waning Crescent, 13% of the Moon is Illuminated
Jun 23
Waning Crescent
Jun 27
New
Jul 5
First Quarter
Jul 12
Full
Jul 18
Last Quarter

Hourly Weather History & Observations

Time (EDT) Temp. Heat Index Dew Point Humidity Pressure Visibility Wind Dir Wind Speed Gust Speed Precip Events Conditions
12:53 AM 80.1 °F 83.6 °F 71.1 °F 74% 29.99 in 10.0 mi South 10.4 mph - N/A   Partly Cloudy
1:53 AM 78.1 °F - 70.0 °F 76% 29.98 in 10.0 mi SW 4.6 mph - N/A   Partly Cloudy
2:53 AM 77.0 °F - 70.0 °F 79% 29.97 in 10.0 mi SW 5.8 mph - N/A   Partly Cloudy
3:53 AM 77.0 °F - 70.0 °F 79% 29.97 in 10.0 mi SW 3.5 mph - N/A   Clear
4:53 AM 75.9 °F - 71.1 °F 85% 29.97 in 10.0 mi SW 4.6 mph - N/A   Clear
5:53 AM 75.0 °F - 71.1 °F 87% 29.98 in 10.0 mi SW 4.6 mph - N/A   Clear
6:53 AM 75.0 °F - 72.0 °F 90% 30.00 in 10.0 mi SW 4.6 mph - N/A   Clear
7:53 AM 78.1 °F - 73.0 °F 84% 30.02 in 10.0 mi SW 4.6 mph - N/A   Clear
8:53 AM 81.0 °F 86.2 °F 73.9 °F 79% 30.04 in 10.0 mi SW 4.6 mph - N/A   Clear
9:53 AM 84.0 °F 89.6 °F 72.0 °F 67% 30.05 in 10.0 mi WNW 6.9 mph - N/A   Clear
10:53 AM 87.1 °F 93.6 °F 72.0 °F 61% 30.06 in 10.0 mi Variable 4.6 mph - N/A   Scattered Clouds
11:53 AM 89.1 °F 95.0 °F 71.1 °F 55% 30.06 in 10.0 mi West 8.1 mph - N/A   Scattered Clouds
12:53 PM 91.9 °F 98.4 °F 71.1 °F 50% 30.06 in 10.0 mi North - - N/A   Partly Cloudy
1:53 PM 91.0 °F 96.6 °F 70.0 °F 50% 30.04 in 10.0 mi Calm Calm - N/A   Clear
2:53 PM 93.0 °F 99.0 °F 70.0 °F 47% 30.03 in 10.0 mi NNW 6.9 mph - N/A   Partly Cloudy
3:03 PM 93.0 °F 99.0 °F 70.0 °F 47% 30.02 in 10.0 mi Variable 5.8 mph - N/A Thunderstorm Clear
3:42 PM 84.9 °F 89.4 °F 70.0 °F 61% 30.03 in 10.0 mi NW 11.5 mph 19.6 mph N/A Thunderstorm Thunderstorm
3:53 PM 82.9 °F 87.5 °F 71.1 °F 67% 30.02 in 10.0 mi NE 9.2 mph - N/A Thunderstorm Thunderstorm
5:04 PM 78.1 °F - 73.9 °F 87% 30.03 in 10.0 mi ENE 5.8 mph - N/A   Scattered Clouds
6:04 PM 77.0 °F - 73.9 °F 90% 30.04 in 10.0 mi ESE 11.5 mph - N/A   Partly Cloudy
6:53 PM 77.0 °F - 72.0 °F 84% 30.05 in 10.0 mi East 6.9 mph - N/A   Partly Cloudy
7:38 PM 75.9 °F - 73.0 °F 91% 30.06 in 10.0 mi SE 6.9 mph - N/A   Partly Cloudy
7:53 PM 75.9 °F - 73.0 °F 91% 30.07 in 10.0 mi Calm Calm - N/A   Clear
8:53 PM 75.9 °F - 72.0 °F 87% 30.07 in 10.0 mi SSE 3.5 mph - N/A   Clear
9:53 PM 77.0 °F - 73.0 °F 88% 30.10 in 10.0 mi SSW 6.9 mph - N/A   Clear
10:53 PM 78.1 °F - 73.0 °F 84% 30.10 in 10.0 mi South 6.9 mph - N/A   Clear
11:53 PM 77.0 °F - 73.0 °F 88% 30.11 in 10.0 mi Calm Calm - N/A   Clear